TimeEDT,TemperatureF,Dew PointF,Humidity,Sea Level PressureIn,VisibilityMPH,Wind Direction,Wind SpeedMPH,Gust SpeedMPH,PrecipitationIn,Events,Conditions,WindDirDegrees,DateUTC
12:54 AM,48.0,36.0,63,29.95,10.0,WNW,13.8,19.6,N/A,,Clear,290,2012-10-07 04:54:00
1:54 AM,46.9,35.1,63,29.96,10.0,WNW,5.8,-,N/A,,Clear,290,2012-10-07 05:54:00
2:54 AM,45.0,34.0,65,29.96,10.0,WNW,5.8,-,N/A,,Clear,290,2012-10-07 06:54:00
3:54 AM,43.0,35.1,74,29.98,10.0,WNW,6.9,-,N/A,,Clear,300,2012-10-07 07:54:00
4:54 AM,41.0,35.1,79,30.01,10.0,SW,6.9,-,N/A,,Clear,220,2012-10-07 08:54:00
5:54 AM,43.0,36.0,76,30.02,10.0,WNW,9.2,-,N/A,,Clear,290,2012-10-07 09:54:00
6:54 AM,41.0,35.1,79,30.05,10.0,WSW,3.5,-,N/A,,Clear,240,2012-10-07 10:54:00
7:54 AM,45.0,37.0,74,30.06,10.0,West,6.9,-,N/A,,Clear,270,2012-10-07 11:54:00
8:54 AM,48.9,37.0,64,30.08,10.0,WNW,4.6,-,N/A,,Clear,300,2012-10-07 12:54:00
9:54 AM,51.1,37.9,61,30.09,10.0,Calm,Calm,-,N/A,,Clear,0,2012-10-07 13:54:00
10:54 AM,53.1,37.0,55,30.08,10.0,Calm,Calm,-,N/A,,Scattered Clouds,0,2012-10-07 14:54:00
11:54 AM,52.0,39.0,61,30.07,10.0,Calm,Calm,-,N/A,,Overcast,0,2012-10-07 15:54:00
12:54 PM,52.0,37.9,59,30.08,10.0,West,6.9,-,N/A,,Mostly Cloudy,260,2012-10-07 16:54:00
1:54 PM,52.0,37.9,59,30.06,10.0,WSW,5.8,-,N/A,,Mostly Cloudy,250,2012-10-07 17:54:00
2:54 PM,51.1,39.9,66,30.06,10.0,WSW,4.6,-,N/A,,Overcast,250,2012-10-07 18:54:00
3:54 PM,51.1,39.9,66,30.04,10.0,West,3.5,-,N/A,,Overcast,260,2012-10-07 19:54:00
4:54 PM,51.1,39.9,66,30.03,10.0,SSW,4.6,-,N/A,,Mostly Cloudy,200,2012-10-07 20:54:00
5:54 PM,50.0,41.0,71,30.04,10.0,SW,3.5,-,N/A,,Overcast,230,2012-10-07 21:54:00
6:54 PM,48.9,41.0,74,30.04,10.0,Calm,Calm,-,N/A,,Overcast,0,2012-10-07 22:54:00
7:54 PM,48.0,43.0,83,30.01,10.0,South,4.6,-,0.00,,Overcast,180,2012-10-07 23:54:00
8:54 PM,48.0,45.0,89,30.06,10.0,WSW,8.1,-,0.00,Rain,Light Rain,250,2012-10-08 00:54:00
9:54 PM,46.9,44.1,90,30.07,7.0,WSW,4.6,-,0.03,Rain,Light Rain,250,2012-10-08 01:54:00
10:23 PM,46.4,44.6,93,30.05,4.0,WNW,6.9,-,0.06,Rain,Heavy Rain,290,2012-10-08 02:23:00
10:41 PM,46.4,42.8,87,30.05,7.0,West,8.1,-,0.08,Rain,Rain,270,2012-10-08 02:41:00
10:54 PM,45.0,42.1,90,30.07,7.0,WNW,15.0,23.0,0.10,Rain,Rain,290,2012-10-08 02:54:00
11:54 PM,44.1,42.1,93,30.06,10.0,West,4.6,-,0.06,Rain,Light Rain,260,2012-10-08 03:54:00